Location: Caltech
(34.1382°N, 118.1253°W)
Time: 19:03:57
(UTC-07:00)

CZ-2C R/B - Visible Passes

Search period start: 30 March 2015 00:00
Search period end: 09 April 2015 00:00
Orbit: 669 x 786 km, 98.1° (Epoch: 30 March)

Date Brightness Start Highest point End Pass type
(mag) Time Alt. Az. Time Alt. Az. Time Alt. Az.
30 Mar 5.1 20:47:56 10° SW 20:50:47 16° W 20:53:27 10° NW visible
31 Mar 3.1 19:58:16 10° S 20:02:43 54° W 20:07:15 10° NNW visible
01 Apr 5.2 20:51:02 10° SW 20:53:39 14° W 20:56:03 10° WNW visible
02 Apr 3.2 20:01:08 10° S 20:05:34 50° W 20:10:04 10° NNW visible
03 Apr 5.2 20:54:10 10° WSW 20:56:31 13° W 20:58:38 10° WNW visible
04 Apr 3.4 20:04:00 10° S 20:08:24 46° W 20:12:52 10° NNW visible
05 Apr 5.3 20:57:20 10° WSW 20:59:24 12° W 21:01:11 10° WNW visible
06 Apr 3.6 20:06:53 10° S 20:11:14 42° W 20:15:40 10° NNW visible
07 Apr 5.4 21:00:36 10° WSW 21:02:16 11° W 21:03:37 10° WNW visible
08 Apr 3.8 20:09:44 10° SSW 20:14:03 39° W 20:18:28 10° NNW visible
